DMSP 5D-2 F13 DEB, 40601

Orbit data source: Space-Track

DMSP 5D-2 F13 DEB, 40601 is space debris in SSO originally from a launch on Fri, 24 Mar 1995 UTC launched from the Air Force Western Test Range (AFWTR). Debris objects in space refer to the collection of defunct objects orbiting the Earth. Examples of debris include non-operational satellites, rocket bodies, and fragments generated from explosions, collisions, or faulty payload assembly.

Loading next visibility...
Identifier
40601, 1995-015EY
Orbit
SSO
Country
Flag of USUS
Related business
Manufacturer
Unknown
Mission
Spacecraft
Bus & Motor
Unknown
Mass
Unknown
Launch date (UTC)
1995-03-24 (31 years ago)
Launch vehicle
Unknown
Launch site
Air Force Western Test Range (AFWTR)
Object type
Payload
Rocket body
Debris
Shape & HBR
Unknown shape, 0.1 m
Radar Cross Section
Small (<0.1 m²)

Expand to show TLE details & history
Last TLE update: 1 day ago

TLE from 1 day ago
0 DMSP 5D-2 F13 DEB
1 40601U 95015EY  26070.56584417  .00007476  00000-0  21093-2 0  9997
2 40601  98.6516 118.2571 0011218 144.1520 216.0426 14.45972464566153
Epoch: 2026-03-11T13:34Z
TLE epoch observation values (Epoch: 2026-03-11T13:34:48.936Z)
Latitude
Longitude
105.32495°
Altitude
748.245 km
Speed
7.477 km/s
True Right ascension
07h 53m 01s
True Declination
0° 00' 00"
Sunlit
Object was in full shadow at epoch
Visualization orbit readout
Latitude
Unknown
Longitude
Unknown
Altitude
Unknown
Speed
Unknown
Apparent Right ascension
Unknown
Apparent Declination
Unknown
Sunlit
N/A
Visualization observer readout
Local Sidereal Time
01:18:56
Azimuth
Unknown
Elevation
Unknown
Doppler factor
Unknown
Orbital elements
Apogee altitude
743.935 km
Perigee altitude
727.974 km
Semi-major axis
7,114.092 km
Eccentricity
0.00112
Inclination
98.6516°
RAAN
118.2571°
Arg. of periapsis
144.152°
True anomaly
215.96705°
Mean anomaly
216.0426°
Eccentric anomaly
216.00482°
Mean motion
3.61713 °/min
Orbital period
99.53 mins
BSTAR
0.0021093
Loading maneuver chart data...
Computing Atmospheric mass density...

Documentation

Showing up to 5 results
|